Surat Thani, Thailand

6:24 AM ICT on February 20, 2017 (GMT +0700)
Surat Thani

Weather History for VTSB - November, 2012

Change the Weather History Date:

Wednesday, November 7, 2012

  Actual Average Record
Temperature  
Mean Temperature 82 °F -  
Max Temperature 91 °F 85 °F - ()
Min Temperature 74 °F 72 °F - ()
Cooling Degree Days 18    
Growing Degree Days 32 (Base 50)    
Moisture  
Dew Point 77 °F    
Average Humidity 82    
Maximum Humidity 100    
Minimum Humidity 57    
Precipitation  
Precipitation 0.00 in 0.37 in - ()
Sea Level Pressure  
Sea Level Pressure 29.79 in    
Wind  
Wind Speed 3 mph ()    
Max Wind Speed 15 mph    
Max Gust Speed -    
Visibility 5.1 miles    
Events      
T = Trace of Precipitation, MM = Missing Value Source: Averaged Metar Reports

Daily Weather History Graph

Daily Weather History Graph

Search for Another Location

Airport or City:

Trip Planner

Search our weather history database for the weather conditions in past years. The results will help you decide how hot, cold, wet, or windy it might be!

Date:

Astronomy

Nov. 07, 2012 Rise Set
Actual Time 6:14 AM ICT 5:59 PM ICT
Civil Twilight 5:52 AM ICT 6:21 PM ICT
Nautical Twilight 5:27 AM ICT 6:46 PM ICT
Astronomical Twilight 5:02 AM ICT 7:11 PM ICT
Moon No Moon Rise 12:36 PM ICT (11/7)
Length of Visible Light 12h 28m
Length of Day
11h 45m
Waning Gibbous, 48% of the Moon is Illuminated
Nov 7
Waning Gibbous
Nov 14
New
Nov 20
First Quarter
Nov 28
Full
Dec 6
Last Quarter

Hourly Weather History & Observations

Time (ICT) Temp. Heat Index Dew Point Humidity Pressure Visibility Wind Dir Wind Speed Gust Speed Precip Events Conditions
1:00 AM 77 °F - 76 °F 95% 29.83 in 4 mi Calm Calm - -   Mist
6:00 AM 73.4 °F - 73.4 °F 100% 29.80 in 1.2 mi Calm Calm - N/A   Partly Cloudy
7:00 AM 74 °F - 73 °F 96% 29.84 in 2 mi Calm Calm - -   Mist
7:00 AM 75.2 °F - 75.2 °F 100% 29.83 in 1.2 mi Calm Calm - N/A   Partly Cloudy
8:00 AM 77.0 °F - 77.0 °F 100% 29.86 in 3.7 mi Calm Calm - N/A   Partly Cloudy
9:00 AM 84.2 °F 96.1 °F 78.8 °F 84% 29.86 in 6.2 mi Calm Calm - N/A   Scattered Clouds
10:00 AM 86.0 °F 99.3 °F 78.8 °F 79% 29.86 in 6.2 mi ENE 6.9 mph - N/A   Scattered Clouds
11:00 AM 87.8 °F 99.7 °F 77.0 °F 70% 29.83 in 6.2 mi NE 6.9 mph - N/A   Scattered Clouds
12:00 PM 89.6 °F 99.8 °F 75.2 °F 62% 29.80 in 6.2 mi NE 6.9 mph - N/A   Scattered Clouds
1:00 PM 90 °F - 76 °F 57% 29.79 in 7 mi NE 4.6 mph - -   Scattered Clouds
1:00 PM 87.8 °F 99.7 °F 77.0 °F 70% 29.77 in 6.2 mi NE 8.1 mph - N/A   Mostly Cloudy
2:00 PM 89.6 °F 102.2 °F 77.0 °F 66% 29.74 in 6.2 mi NE 12.7 mph - N/A   Scattered Clouds
3:00 PM 89.6 °F 104.7 °F 78.8 °F 70% 29.74 in 6.2 mi NE 15.0 mph - N/A   Scattered Clouds
4:00 PM 87.8 °F 97.6 °F 75.2 °F 66% 29.71 in 6.2 mi NE 15.0 mph - N/A   Scattered Clouds
5:00 PM 86.0 °F 95.1 °F 75.2 °F 70% 29.71 in 6.2 mi NE 15.0 mph - N/A   Scattered Clouds
6:00 PM 84.2 °F 94.1 °F 77.0 °F 79% 29.74 in 6.2 mi NNE 9.2 mph - N/A   Scattered Clouds
7:00 PM 82 °F - 77 °F 79% 29.76 in 6 mi Calm Calm - -   Scattered Clouds
7:00 PM 82.4 °F 96.1 °F 82.4 °F 100% 29.77 in 5.6 mi NNW 4.6 mph - N/A   Partly Cloudy
8:00 PM 78.8 °F - 77.0 °F 94% 29.77 in 5.0 mi Calm Calm - N/A   Partly Cloudy
9:00 PM 78.8 °F - 77.0 °F 94% 29.80 in 4.3 mi Calm Calm - N/A   Partly Cloudy